This is the latest recevied weather packets stored in our database for station/object DL6DBZ-10. If no packets are shown the sender has not sent any weather packets the latest 10 day(s).
| Time | Temp. | Humidity | Pressure | Rain* | Wind** | Luminosity | Snow |
|---|---|---|---|---|---|---|---|
| 1787599043 | 17.78° C | 51% | 1023.2 hPa | - | - | - | - |
| 1787598443 | 17.78° C | 51% | 1023.1 hPa | - | - | - | - |
| 1787597843 | 18.33° C | 50% | 1023.2 hPa | - | - | - | - |
| 1787597243 | 18.33° C | 48% | 1023.1 hPa | - | - | - | - |
| 1787596642 | 18.33° C | 48% | 1023.1 hPa | - | - | - | - |
| 1787596042 | 18.89° C | 47% | 1023.1 hPa | - | - | - | - |
| 1787595442 | 19.44° C | 45% | 1023.1 hPa | - | - | - | - |
| 1787594842 | 20° C | 44% | 1023.1 hPa | - | - | - | - |
| 1787594242 | 20.56° C | 43% | 1023.1 hPa | - | - | - | - |
| 1787593642 | 20.56° C | 43% | 1023.3 hPa | - | - | - | - |
| 1787593041 | 20° C | 42% | 1023.1 hPa | - | - | - | - |
| 1787592441 | 21.11° C | 41% | 1023.2 hPa | - | - | - | - |
| 1787591841 | 21.11° C | 41% | 1023.3 hPa | - | - | - | - |
| 1787591241 | 21.11° C | 40% | 1023.3 hPa | - | - | - | - |
| 1787590641 | 21.11° C | 40% | 1023.4 hPa | - | - | - | - |
| 1787590041 | 21.11° C | 40% | 1023.6 hPa | - | - | - | - |
| 1787589440 | 21.11° C | 41% | 1023.7 hPa | - | - | - | - |
| 1787588840 | 21.67° C | 40% | 1023.8 hPa | - | - | - | - |
| 1787588240 | 21.11° C | 41% | 1023.9 hPa | - | - | - | - |
| 1787587640 | 21.67° C | 40% | 1024 hPa | - | - | - | - |
| 1787587040 | 21.11° C | 42% | 1024.1 hPa | - | - | - | - |
| 1787586439 | 21.11° C | 42% | 1024.3 hPa | - | - | - | - |
| 1787585839 | 21.67° C | 41% | 1024.4 hPa | - | - | - | - |
| 1787585239 | 21.11° C | 42% | 1024.5 hPa | - | - | - | - |
| 1787584639 | 21.67° C | 40% | 1024.6 hPa | - | - | - | - |
* Rain since midnight (hover to see other rain measurements)
** Current wind speed in m/s (hover to see current wind gust speed)